SWA7698 PHKO-PHLI

Flight info

Callsign SWA7698
Flight time 0h 41m
Altitude 25000
Route KOA V20 JULLE V16 NAPUA LIH
Aircraft B738/M-SDE2E3FGHIRWXY/LB1

Departure

Time 2026-04-27 00:12
Airport Ellison Onizuka Kona International Airport at Keāhole (PHKO)

Arrival

Time 2026-04-27 00:53
Airport Lihue Airport (PHLI)
Time Latitude Longitude Altitude Speed Heading
2026-04-26 23:56 19.73678 -156.04225 46 ft 0 kts 95°
2026-04-27 00:04 19.73678 -156.04226 73 ft 1 kts 95°
2026-04-27 00:04 19.73679 -156.04243 45 ft 3 kts 97°
2026-04-27 00:04 19.73682 -156.04262 44 ft 3 kts 100°
2026-04-27 00:05 19.73686 -156.04284 39 ft 3 kts 105°
2026-04-27 00:05 19.73687 -156.04287 39 ft 3 kts 107°
2026-04-27 00:05 19.73689 -156.04293 39 ft 3 kts 110°
2026-04-27 00:05 19.73696 -156.04311 40 ft 3 kts 126°
2026-04-27 00:06 19.73708 -156.04323 40 ft 3 kts 167°
2026-04-27 00:06 19.73715 -156.04325 41 ft 0 kts 185°
2026-04-27 00:08 19.73708 -156.04325 43 ft 7 kts 185°
2026-04-27 00:08 19.73626 -156.04333 44 ft 14 kts 185°
2026-04-27 00:08 19.73516 -156.04343 45 ft 21 kts 185°
2026-04-27 00:08 19.73365 -156.04356 48 ft 22 kts 185°
2026-04-27 00:09 19.73216 -156.04370 50 ft 21 kts 185°
2026-04-27 00:09 19.73073 -156.04382 49 ft 21 kts 184°
2026-04-27 00:09 19.72932 -156.04392 48 ft 20 kts 184°
2026-04-27 00:09 19.72796 -156.04407 49 ft 19 kts 186°
2026-04-27 00:10 19.72664 -156.04419 46 ft 19 kts 185°
2026-04-27 00:10 19.72534 -156.04430 43 ft 19 kts 184°
2026-04-27 00:10 19.72400 -156.04443 44 ft 19 kts 193°
2026-04-27 00:10 19.72366 -156.04560 44 ft 19 kts 275°
2026-04-27 00:11 19.72393 -156.04687 46 ft 18 kts 325°
2026-04-27 00:11 19.72529 -156.04687 47 ft 32 kts
2026-04-27 00:11 19.73070 -156.04639 45 ft 121 kts
2026-04-27 00:11 19.74156 -156.04537 175 ft 182 kts
2026-04-27 00:12 19.75393 -156.04451 1464 ft 170 kts 356°
2026-04-27 00:12 19.76429 -156.04891 2713 ft 170 kts 319°
2026-04-27 00:12 19.77077 -156.06022 3141 ft 199 kts 282°
2026-04-27 00:12 19.77342 -156.07574 3393 ft 229 kts 281°
2026-04-27 00:13 19.77644 -156.09298 3868 ft 246 kts 281°
2026-04-27 00:13 19.77977 -156.11176 4365 ft 266 kts 281°
2026-04-27 00:13 19.78324 -156.13129 5237 ft 271 kts 281°
2026-04-27 00:13 19.78676 -156.15106 6157 ft 274 kts 281°
2026-04-27 00:14 19.78911 -156.16429 6714 ft 277 kts 281°
2026-04-27 00:14 19.79275 -156.18467 7535 ft 282 kts 281°
2026-04-27 00:14 19.79643 -156.20532 8363 ft 287 kts 281°
2026-04-27 00:14 19.80018 -156.22629 9218 ft 290 kts 280°
2026-04-27 00:15 19.80397 -156.24752 10042 ft 295 kts 280°
2026-04-27 00:15 19.80789 -156.26942 10501 ft 313 kts 280°
2026-04-27 00:15 19.81213 -156.29316 10683 ft 339 kts 281°
2026-04-27 00:15 19.81696 -156.31851 10867 ft 362 kts 286°
2026-04-27 00:16 19.82845 -156.34281 11227 ft 375 kts 307°
2026-04-27 00:16 19.84521 -156.36367 11864 ft 378 kts 312°
2026-04-27 00:16 19.86300 -156.38430 12655 ft 377 kts 313°
2026-04-27 00:16 19.88100 -156.40486 13239 ft 384 kts 313°
2026-04-27 00:17 19.89933 -156.42586 13772 ft 390 kts 313°
2026-04-27 00:17 19.91777 -156.44715 14302 ft 394 kts 312°
2026-04-27 00:17 19.93634 -156.46875 14899 ft 396 kts 312°
2026-04-27 00:17 19.95494 -156.49051 15451 ft 398 kts 312°
2026-04-27 00:18 19.97365 -156.51248 15991 ft 402 kts 312°
2026-04-27 00:18 19.99222 -156.53432 16517 ft 405 kts 313°
2026-04-27 00:18 20.01121 -156.55668 17061 ft 408 kts 313°
2026-04-27 00:18 20.03028 -156.57916 17602 ft 411 kts 313°
2026-04-27 00:19 20.04949 -156.60181 18126 ft 414 kts 313°
2026-04-27 00:19 20.06884 -156.62463 18589 ft 417 kts 313°
2026-04-27 00:19 20.08829 -156.64758 19067 ft 418 kts 313°
2026-04-27 00:19 20.10785 -156.67068 19558 ft 420 kts 313°
2026-04-27 00:20 20.12744 -156.69379 20046 ft 421 kts 313°
2026-04-27 00:20 20.14708 -156.71700 20522 ft 423 kts 313°
2026-04-27 00:20 20.16676 -156.74025 20996 ft 424 kts 313°
2026-04-27 00:20 20.18634 -156.76341 21473 ft 426 kts 313°
2026-04-27 00:21 20.20625 -156.78696 21808 ft 431 kts 313°
2026-04-27 00:21 20.22627 -156.81065 22356 ft 429 kts 312°
2026-04-27 00:21 20.24628 -156.83434 22763 ft 432 kts 312°
2026-04-27 00:21 20.26655 -156.85835 23113 ft 436 kts 312°
2026-04-27 00:22 20.28681 -156.88235 23533 ft 438 kts 312°
2026-04-27 00:22 20.30728 -156.90660 23858 ft 441 kts 312°
2026-04-27 00:22 20.32805 -156.93074 24209 ft 442 kts 314°
2026-04-27 00:22 20.35000 -156.95366 24606 ft 442 kts 317°
2026-04-27 00:23 20.37240 -156.97581 24936 ft 444 kts 317°
2026-04-27 00:23 20.39522 -156.99822 25007 ft 450 kts 317°
2026-04-27 00:23 20.41856 -157.02142 25020 ft 455 kts 317°
2026-04-27 00:23 20.44133 -157.04438 25035 ft 456 kts 316°
2026-04-27 00:24 20.46419 -157.06759 25020 ft 454 kts 316°
2026-04-27 00:24 20.48705 -157.09082 25034 ft 453 kts 316°
2026-04-27 00:24 20.50990 -157.11401 25030 ft 452 kts 316°
2026-04-27 00:24 20.53269 -157.13714 25038 ft 452 kts 316°
2026-04-27 00:25 20.55550 -157.16029 25037 ft 452 kts 316°
2026-04-27 00:25 20.57827 -157.18342 25049 ft 452 kts 316°
2026-04-27 00:25 20.60103 -157.20656 25043 ft 452 kts 316°
2026-04-27 00:25 20.62380 -157.22970 25039 ft 453 kts 316°
2026-04-27 00:26 20.64666 -157.25296 25043 ft 453 kts 316°
2026-04-27 00:26 20.66947 -157.27619 25037 ft 453 kts 316°
2026-04-27 00:26 20.69190 -157.29924 25030 ft 454 kts 316°
2026-04-27 00:26 20.71465 -157.32272 25025 ft 454 kts 316°
2026-04-27 00:27 20.73739 -157.34622 25023 ft 454 kts 316°
2026-04-27 00:27 20.76011 -157.36970 25027 ft 454 kts 316°
2026-04-27 00:27 20.78278 -157.39314 25024 ft 454 kts 316°
2026-04-27 00:27 20.80551 -157.41663 25031 ft 454 kts 316°
2026-04-27 00:28 20.82822 -157.44011 25032 ft 453 kts 316°
2026-04-27 00:28 20.85090 -157.46356 25024 ft 453 kts 316°
2026-04-27 00:28 20.87363 -157.48708 25031 ft 452 kts 316°
2026-04-27 00:28 20.89622 -157.51046 25026 ft 451 kts 316°
2026-04-27 00:29 20.91874 -157.53376 25023 ft 451 kts 316°
2026-04-27 00:29 20.94131 -157.55717 25031 ft 450 kts 316°
2026-04-27 00:29 20.96079 -157.58286 25031 ft 451 kts 301°
2026-04-27 00:29 20.97335 -157.61352 25048 ft 452 kts 290°
2026-04-27 00:30 20.98336 -157.64554 25036 ft 452 kts 289°
2026-04-27 00:30 20.99299 -157.67750 25031 ft 452 kts 289°
2026-04-27 00:30 21.00269 -157.70951 25037 ft 452 kts 289°
2026-04-27 00:30 21.00599 -157.72028 25025 ft 452 kts 289°
2026-04-27 00:31 21.01194 -157.73952 25029 ft 452 kts 290°
2026-04-27 00:31 21.02197 -157.77156 25036 ft 452 kts 290°
2026-04-27 00:31 21.03205 -157.80345 25034 ft 452 kts 290°
2026-04-27 00:32 21.04216 -157.83531 25033 ft 452 kts 290°
2026-04-27 00:32 21.05228 -157.86721 25040 ft 452 kts 290°
2026-04-27 00:32 21.06240 -157.89913 25037 ft 452 kts 290°
2026-04-27 00:32 21.07248 -157.93099 25037 ft 452 kts 290°
2026-04-27 00:33 21.08268 -157.96301 25047 ft 453 kts 290°
2026-04-27 00:33 21.09288 -157.99452 25027 ft 445 kts 290°
2026-04-27 00:33 21.10299 -158.02586 25048 ft 444 kts 290°
2026-04-27 00:33 21.11277 -158.05680 25051 ft 444 kts 290°
2026-04-27 00:34 21.12256 -158.08806 24991 ft 440 kts 289°
2026-04-27 00:34 21.13225 -158.11906 24509 ft 437 kts 290°
2026-04-27 00:34 21.14183 -158.14973 23982 ft 432 kts 290°
2026-04-27 00:34 21.15135 -158.18014 23392 ft 429 kts 290°
2026-04-27 00:35 21.16081 -158.21035 22753 ft 426 kts 290°
2026-04-27 00:35 21.17023 -158.24039 22154 ft 422 kts 290°
2026-04-27 00:35 21.17952 -158.27008 21571 ft 418 kts 290°
2026-04-27 00:35 21.18888 -158.29943 21003 ft 414 kts 292°
2026-04-27 00:36 21.20088 -158.32696 20350 ft 412 kts 301°
2026-04-27 00:36 21.21605 -158.35298 19733 ft 410 kts 303°
2026-04-27 00:36 21.23156 -158.37863 19143 ft 409 kts 304°
2026-04-27 00:36 21.24700 -158.40423 18569 ft 407 kts 303°
2026-04-27 00:37 21.26216 -158.42974 17956 ft 405 kts 303°
2026-04-27 00:37 21.27716 -158.45526 17362 ft 402 kts 303°
2026-04-27 00:37 21.29195 -158.48056 16780 ft 399 kts 303°
2026-04-27 00:37 21.30665 -158.50573 16143 ft 398 kts 303°
2026-04-27 00:38 21.32126 -158.53067 15544 ft 396 kts 303°
2026-04-27 00:38 21.33572 -158.55535 14979 ft 394 kts 303°
2026-04-27 00:38 21.35044 -158.58049 14427 ft 391 kts 303°
2026-04-27 00:38 21.36489 -158.60517 13881 ft 389 kts 302°
2026-04-27 00:39 21.37908 -158.62944 13291 ft 387 kts 302°
2026-04-27 00:39 21.39331 -158.65377 12741 ft 384 kts 303°
2026-04-27 00:39 21.40744 -158.67796 12198 ft 380 kts 303°
2026-04-27 00:39 21.42137 -158.70180 11666 ft 377 kts 303°
2026-04-27 00:40 21.43533 -158.72573 11152 ft 374 kts 303°
2026-04-27 00:40 21.44887 -158.74895 10929 ft 362 kts 303°
2026-04-27 00:40 21.46211 -158.77165 10754 ft 351 kts 303°
2026-04-27 00:40 21.47480 -158.79341 10599 ft 339 kts 303°
2026-04-27 00:41 21.48713 -158.81459 10454 ft 329 kts 303°
2026-04-27 00:41 21.49908 -158.83509 10318 ft 319 kts 303°
2026-04-27 00:41 21.51070 -158.85504 10188 ft 310 kts 303°
2026-04-27 00:41 21.52193 -158.87432 10055 ft 301 kts 303°
2026-04-27 00:42 21.53293 -158.89317 9951 ft 291 kts 303°
2026-04-27 00:42 21.54362 -158.91148 9546 ft 293 kts 303°
2026-04-27 00:42 21.55441 -158.92994 9245 ft 292 kts 303°
2026-04-27 00:42 21.56510 -158.94826 8905 ft 292 kts 303°
2026-04-27 00:43 21.57580 -158.96663 8595 ft 287 kts 303°
2026-04-27 00:43 21.58624 -158.98455 8283 ft 279 kts 303°
2026-04-27 00:43 21.59639 -159.00199 7997 ft 271 kts 303°
2026-04-27 00:43 21.60628 -159.01898 7719 ft 264 kts 303°
2026-04-27 00:44 21.61594 -159.03557 7435 ft 259 kts 303°
2026-04-27 00:44 21.62542 -159.05186 7190 ft 259 kts 303°
2026-04-27 00:44 21.63515 -159.06856 6939 ft 267 kts 303°
2026-04-27 00:44 21.64512 -159.08571 6650 ft 273 kts 303°
2026-04-27 00:45 21.65517 -159.10300 6356 ft 273 kts 303°
2026-04-27 00:45 21.66520 -159.12028 6052 ft 272 kts 303°
2026-04-27 00:45 21.67511 -159.13732 5758 ft 272 kts 303°
2026-04-27 00:45 21.68523 -159.15476 5476 ft 271 kts 303°
2026-04-27 00:46 21.69508 -159.17179 5209 ft 269 kts 303°
2026-04-27 00:46 21.70465 -159.18853 5143 ft 255 kts 304°
2026-04-27 00:46 21.71371 -159.20439 5002 ft 242 kts 304°
2026-04-27 00:46 21.72231 -159.21946 4895 ft 230 kts 304°
2026-04-27 00:47 21.73042 -159.23368 4832 ft 215 kts 304°
2026-04-27 00:47 21.73807 -159.24700 4592 ft 206 kts 304°
2026-04-27 00:47 21.74562 -159.25998 4304 ft 200 kts 305°
2026-04-27 00:47 21.75275 -159.27227 4114 ft 191 kts 305°
2026-04-27 00:48 21.75969 -159.28424 3936 ft 183 kts 305°
2026-04-27 00:48 21.76639 -159.29576 3849 ft 188 kts 306°
2026-04-27 00:48 21.77350 -159.30795 3737 ft 198 kts 306°
2026-04-27 00:48 21.78087 -159.32063 3530 ft 199 kts 306°
2026-04-27 00:49 21.79017 -159.33053 3380 ft 181 kts 344°
2026-04-27 00:49 21.80217 -159.33286 3229 ft 179 kts 358°
2026-04-27 00:49 21.81463 -159.33450 2991 ft 180 kts 358°
2026-04-27 00:49 21.82680 -159.33561 2758 ft 171 kts
2026-04-27 00:50 21.83834 -159.33589 2569 ft 164 kts
2026-04-27 00:50 21.85955 -159.33593 2162 ft 146 kts
2026-04-27 00:50 21.86946 -159.33592 1963 ft 142 kts
2026-04-27 00:51 21.87942 -159.33591 1788 ft 142 kts
2026-04-27 00:51 21.88925 -159.33588 1611 ft 144 kts
2026-04-27 00:51 21.89918 -159.33582 1551 ft 140 kts
2026-04-27 00:51 21.90885 -159.33596 1359 ft 139 kts
2026-04-27 00:52 21.91837 -159.33595 1117 ft 135 kts
2026-04-27 00:52 21.92809 -159.33599 936 ft 140 kts
2026-04-27 00:52 21.93771 -159.33600 688 ft 138 kts
2026-04-27 00:52 21.94740 -159.33593 454 ft 140 kts
2026-04-27 00:53 21.95700 -159.33591 311 ft 135 kts
2026-04-27 00:53 21.96616 -159.33594 105 ft 131 kts 358°
2026-04-27 00:53 21.97389 -159.33591 99 ft 82 kts
2026-04-27 00:53 21.97746 -159.33614 101 ft 28 kts 346°
2026-04-27 00:54 21.97918 -159.33701 100 ft 27 kts 319°
2026-04-27 00:54 21.97940 -159.33887 110 ft 25 kts 270°
2026-04-27 00:54 21.97940 -159.34068 119 ft 23 kts 270°
2026-04-27 00:54 21.97938 -159.34239 121 ft 22 kts 270°
2026-04-27 00:55 21.97906 -159.34395 126 ft 22 kts 226°
2026-04-27 00:55 21.97801 -159.34507 134 ft 21 kts 224°
2026-04-27 00:55 21.97738 -159.34623 138 ft 17 kts 306°
2026-04-27 00:55 21.97786 -159.34716 138 ft 14 kts 258°
2026-04-27 00:56 21.97828 -159.34779 138 ft 6 kts 316°
2026-04-27 00:56 21.97832 -159.34783 138 ft 0 kts 316°